Home > Weather > Owensboro > Past weeks

Flag for USA Past Weather in Owensboro, Kentucky, USA — Yesterday and Last 2 Weeks

Now
73 °F

Fog.


Feels Like: 67 °F
Forecast: 73 / 82 °F
Wind: 7 mph from Southwest

Location: Owensboro / Daviess

Current Time: Jul 28, 2016 at 7:34:31 AM

Latest Report: Jul 28, 2016 at 6:56 AM


Visibility: 8 mi

Pressure: 29.91 "Hg

Humidity: 100%

Dew Point: 73 °F

Location of OwensboroLocation

Past Weather in Owensboro — Graph

°F

Owensboro Temperature Yesterday

Maximum temperature yesterday: 93 °F (at 3:56 PM)
Minimum temperature yesterday: 73 °F (at 10:04 PM)
Average temperature yesterday: 80 °F

High & Low Weather Summary for the Past Weeks

 TemperatureHumidityPressure
High94 °F (Jul 19, 2:56 PM)100% (Jul 13, 5:56 AM)30.25 "Hg (Jul 13, 5:56 AM)
Low68 °F (Jul 15, 3:56 AM)50% (Jul 19, 5:56 PM)29.88 "Hg (Jul 27, 5:56 PM)
Average81 °F83%30.04 "Hg
* Reported Jul 13 5:56 AM — Jul 28 5:58 AM, Owensboro, Weather by CustomWeather, © 2016

Note: Actual official high and low records may vary slightly from our data, if they occured in-between our weather recording intervals... More about our weather records

Advertising

Owensboro Weather History for the Previous 24 Hours

Scroll right to see more
 ConditionsComfort  
Time TempWeatherWind HumidityBarometerVisibility
5:58 AM
Thu, Jul 28
73 °FLight rain. Fog.6 mph100%29.92 "Hg7 mi
4:56 AM73 °FPassing clouds.No wind100%29.90 "Hg10 mi
3:56 AM73 °FPassing clouds.No wind100%29.90 "Hg10 mi
2:56 AM73 °FLight rain. Clear.3 mph100%29.89 "Hg10 mi
1:56 AM73 °FLight rain. Clear.No wind100%29.92 "Hg10 mi
12:56 AM74 °FClear.7 mph100%29.91 "Hg10 mi
11:56 PM
Wed, Jul 27
75 °FClear.No wind97%29.92 "Hg10 mi
10:56 PM75 °FThunderstorms. Clear.5 mph100%29.94 "Hg10 mi
10:04 PM73 °FThunderstorms. Mostly cloudy.6 mph100%29.95 "Hg7 mi
9:56 PM75 °FLight rain. Passing clouds.10 mph100%29.94 "Hg7 mi
8:56 PM76 °FRain. Fog.6 mph100%29.92 "Hg6 mi
7:56 PM77 °FThunderstorms. Fog.14 mph96%29.97 "Hg5 mi
6:56 PM80 °FThunderstorms. Broken clouds.5 mph88%29.92 "Hg7 mi
5:56 PM87 °FPartly sunny.9 mph72%29.88 "Hg10 mi
4:56 PM92 °FScattered clouds.6 mph57%29.89 "Hg10 mi
3:56 PM93 °FScattered clouds.6 mph58%29.90 "Hg10 mi
2:56 PM91 °FSunny.6 mph66%29.93 "Hg10 mi
1:56 PM91 °FSunny.5 mph62%29.95 "Hg10 mi
12:56 PM90 °FSunny.6 mph68%29.97 "Hg10 mi
11:56 AM90 °FSunny.3 mph63%29.99 "Hg10 mi
10:56 AM87 °FSunny.No wind63%29.99 "Hg10 mi
9:56 AM79 °FScattered clouds.7 mph84%29.99 "Hg7 mi
8:56 AM79 °FFog.10 mph100%30.01 "Hg3 mi
7:56 AM81 °FFog.No wind90%29.98 "Hg4 mi
7:03 AM75 °FFog.No wind100%30.01 "Hg2 mi
Weather by CustomWeather, © 2016

See weather overviewHow to use our weather pages